Puropanmaru No.3 — JD3322 — position and weather

sailwx.info

Track history (hours):
 
Tides and Currents Weather Stations Pressure Air Temp Water Temp Dewpoint Dewpoint Depression Visibility Wind Speed Wind Dir Waves Ship Positions

Puropanmaru No.3

Last reported at 2014-Oct-24 20:22 UTC. Time now 2014-Oct-24 21:22 UTC.
Position N 34°32' E 135°19'.

Length 68 m; draft 4.5 m.

Type: Tanker. MMSI: 431003365.

Date/timePositionNaut miles runAvg speedWind from/ knotsBaromVisibWave heightAir tempDewpointWater temp
2014-Oct-24 20:22N 34°32' E 135°19'0 0.0
2014-Oct-24 19:28N 34°32' E 135°19'0 0.0
2014-Oct-24 18:28N 34°32' E 135°19'0 0.0
2014-Oct-24 17:16N 34°32' E 135°19'0 0.0
2014-Oct-24 16:28N 34°32' E 135°19'0 0.0
2014-Oct-24 15:28N 34°32' E 135°19'0 0.0
2014-Oct-24 14:28N 34°32' E 135°19'0 0.0
2014-Oct-24 12:28N 34°32' E 135°19'0 0.0
2014-Oct-24 11:28N 34°32' E 135°19'0 0.0
2014-Oct-24 10:16N 34°32' E 135°19'0 0.1
2014-Oct-24 09:22N 34°32' E 135°19'0 0.0
2014-Oct-24 08:28N 34°32' E 135°19'0 0.0
2014-Oct-24 07:28N 34°32' E 135°19'0 0.0
2014-Oct-24 06:28N 34°32' E 135°19'0 0.0
2014-Oct-24 05:28N 34°32' E 135°19'0 0.0
2014-Oct-24 04:22N 34°32' E 135°19'0 0.0
2014-Oct-24 03:16N 34°32' E 135°19'0 0.1
2014-Oct-24 02:28N 34°32' E 135°19'0 0.0
2014-Oct-24 01:22N 34°32' E 135°19'0 0.0
2014-Oct-24 00:28N 34°32' E 135°19'0 0.0
2014-Oct-23 23:28N 34°32' E 135°19'0 0.0
2014-Oct-23 22:28N 34°32' E 135°19'0 0.0
2014-Oct-23 21:28N 34°32' E 135°19'0 0.0
2014-Oct-23 20:28N 34°32' E 135°19'0 0.0
2014-Oct-23 19:28N 34°32' E 135°19'0 0.0
2014-Oct-23 18:28N 34°32' E 135°19'0 0.0
2014-Oct-23 17:16N 34°32' E 135°19'0 0.0
2014-Oct-23 16:28N 34°32' E 135°19'0 0.0
2014-Oct-23 15:28N 34°32' E 135°19'0 0.0
2014-Oct-23 14:27N 34°32' E 135°19'0 0.0
2014-Oct-23 13:28N 34°32' E 135°19'0 0.0
2014-Oct-23 12:33N 34°32' E 135°19'0 0.0
2014-Oct-23 11:34N 34°32' E 135°19'0 0.0
2014-Oct-23 10:22N 34°32' E 135°19'0 0.0
2014-Oct-23 09:09N 34°32' E 135°19'0 0.1
2014-Oct-23 08:28N 34°32' E 135°19'0 0.1
2014-Oct-23 07:33N 34°32' E 135°19'0 0.0
2014-Oct-23 06:34N 34°32' E 135°19'8 7.5
2014-Oct-23 05:33N 34°34' E 135°10'141 6.1
2014-Oct-22 06:23N 34°07' E 132°23'9 1.2
2014-Oct-21 23:11N 34°12' E 132°15'2 2.6
2014-Oct-21 22:33N 34°13' E 132°14'0 0.0
2014-Oct-21 21:33N 34°13' E 132°14'0 0.0
2014-Oct-21 20:33N 34°13' E 132°14'0 0.0
2014-Oct-21 19:33N 34°13' E 132°14'0 0.0
2014-Oct-21 18:33N 34°13' E 132°14'0 0.0
2014-Oct-21 17:33N 34°13' E 132°14'0 0.0
2014-Oct-21 16:33N 34°13' E 132°14'0 0.0
2014-Oct-21 15:33N 34°13' E 132°14'0 0.0
2014-Oct-21 14:33N 34°13' E 132°14'0 0.0
2014-Oct-21 13:33N 34°13' E 132°14'0 0.0
2014-Oct-21 11:09N 34°13' E 132°14'0 0.0
2014-Oct-21 10:33N 34°13' E 132°14'0 0.0
2014-Oct-21 09:33N 34°13' E 132°14'0 0.0
2014-Oct-21 08:33N 34°13' E 132°14'0 0.0
2014-Oct-21 07:33N 34°13' E 132°14'0 0.0
2014-Oct-21 06:33N 34°13' E 132°14'0 0.0
2014-Oct-21 05:33N 34°13' E 132°14'0 0.0
2014-Oct-21 04:33N 34°13' E 132°14'0 0.0
2014-Oct-21 03:33N 34°13' E 132°14'0 0.0
2014-Oct-21 02:15N 34°13' E 132°14'0 0.0
2014-Oct-21 01:33N 34°13' E 132°14'0 0.0
2014-Oct-21 00:33N 34°13' E 132°14'0 0.0
2014-Oct-20 23:33N 34°13' E 132°14'  
Track history (hours):
 
Tides and Currents Weather Stations Pressure Air Temp Water Temp Dewpoint Dewpoint Depression Visibility Wind Speed Wind Dir Waves Ship Positions

Puropanmaru No.3

Last reported at 2014-Oct-24 20:22 UTC. Time now 2014-Oct-24 21:22 UTC.
Position N 34°32' E 135°19'.

Length 68 m; draft 4.5 m.

Type: Tanker. MMSI: 431003365.

Date/timePositionNaut miles runAvg speedWind from/ knotsBaromVisibWave heightAir tempDewpointWater temp
2014-Oct-24 20:22N 34°32' E 135°19'0 0.0
2014-Oct-24 19:28N 34°32' E 135°19'0 0.0
2014-Oct-24 18:28N 34°32' E 135°19'0 0.0
2014-Oct-24 17:16N 34°32' E 135°19'0 0.0
2014-Oct-24 16:28N 34°32' E 135°19'0 0.0
2014-Oct-24 15:28N 34°32' E 135°19'0 0.0
2014-Oct-24 14:28N 34°32' E 135°19'0 0.0
2014-Oct-24 12:28N 34°32' E 135°19'0 0.0
2014-Oct-24 11:28N 34°32' E 135°19'0 0.0
2014-Oct-24 10:16N 34°32' E 135°19'0 0.1
2014-Oct-24 09:22N 34°32' E 135°19'0 0.0
2014-Oct-24 08:28N 34°32' E 135°19'0 0.0
2014-Oct-24 07:28N 34°32' E 135°19'0 0.0
2014-Oct-24 06:28N 34°32' E 135°19'0 0.0
2014-Oct-24 05:28N 34°32' E 135°19'0 0.0
2014-Oct-24 04:22N 34°32' E 135°19'0 0.0
2014-Oct-24 03:16N 34°32' E 135°19'0 0.1
2014-Oct-24 02:28N 34°32' E 135°19'0 0.0
2014-Oct-24 01:22N 34°32' E 135°19'0 0.0
2014-Oct-24 00:28N 34°32' E 135°19'0 0.0
2014-Oct-23 23:28N 34°32' E 135°19'0 0.0
2014-Oct-23 22:28N 34°32' E 135°19'0 0.0
2014-Oct-23 21:28N 34°32' E 135°19'0 0.0
2014-Oct-23 20:28N 34°32' E 135°19'0 0.0
2014-Oct-23 19:28N 34°32' E 135°19'0 0.0
2014-Oct-23 18:28N 34°32' E 135°19'0 0.0
2014-Oct-23 17:16N 34°32' E 135°19'0 0.0
2014-Oct-23 16:28N 34°32' E 135°19'0 0.0
2014-Oct-23 15:28N 34°32' E 135°19'0 0.0
2014-Oct-23 14:27N 34°32' E 135°19'0 0.0
2014-Oct-23 13:28N 34°32' E 135°19'0 0.0
2014-Oct-23 12:33N 34°32' E 135°19'0 0.0
2014-Oct-23 11:34N 34°32' E 135°19'0 0.0
2014-Oct-23 10:22N 34°32' E 135°19'0 0.0
2014-Oct-23 09:09N 34°32' E 135°19'0 0.1
2014-Oct-23 08:28N 34°32' E 135°19'0 0.1
2014-Oct-23 07:33N 34°32' E 135°19'0 0.0
2014-Oct-23 06:34N 34°32' E 135°19'8 7.5
2014-Oct-23 05:33N 34°34' E 135°10'141 6.1
2014-Oct-22 06:23N 34°07' E 132°23'9 1.2
2014-Oct-21 23:11N 34°12' E 132°15'2 2.6
2014-Oct-21 22:33N 34°13' E 132°14'0 0.0
2014-Oct-21 21:33N 34°13' E 132°14'0 0.0
2014-Oct-21 20:33N 34°13' E 132°14'0 0.0
2014-Oct-21 19:33N 34°13' E 132°14'0 0.0
2014-Oct-21 18:33N 34°13' E 132°14'0 0.0
2014-Oct-21 17:33N 34°13' E 132°14'0 0.0
2014-Oct-21 16:33N 34°13' E 132°14'0 0.0
2014-Oct-21 15:33N 34°13' E 132°14'0 0.0
2014-Oct-21 14:33N 34°13' E 132°14'0 0.0
2014-Oct-21 13:33N 34°13' E 132°14'0 0.0
2014-Oct-21 11:09N 34°13' E 132°14'0 0.0
2014-Oct-21 10:33N 34°13' E 132°14'0 0.0
2014-Oct-21 09:33N 34°13' E 132°14'0 0.0
2014-Oct-21 08:33N 34°13' E 132°14'0 0.0
2014-Oct-21 07:33N 34°13' E 132°14'0 0.0
2014-Oct-21 06:33N 34°13' E 132°14'0 0.0
2014-Oct-21 05:33N 34°13' E 132°14'0 0.0
2014-Oct-21 04:33N 34°13' E 132°14'0 0.0
2014-Oct-21 03:33N 34°13' E 132°14'0 0.0
2014-Oct-21 02:15N 34°13' E 132°14'0 0.0
2014-Oct-21 01:33N 34°13' E 132°14'0 0.0
2014-Oct-21 00:33N 34°13' E 132°14'0 0.0
2014-Oct-20 23:33N 34°13' E 132°14'  

Dump ship's entire track history